Flag for Bosnia-Herzegovina Weather past 2 weeks in Mostar, Bosnia-Herzegovina

Now
64 °F

Mostly cloudy.


Feels Like: 64 °F
Forecast: 59 / 82 °F
Wind: 1 mph from North

Location: Mostar

Current Time: Sep 20, 2014 at 8:30:34 PM

Latest Report: Sep 20, 2014 at 8:00 PM


Visibility: N/A

Pressure: 30.04 "Hg

Humidity: 100%

Dew point: 64 °F

Location of MostarLocation

Historic Weather in Mostar — Graph

°F

Mostar temperature yesterday

Maximum temperature yesterday: 81 °F (at 1:00 PM)
Minimum temperature yesterday: 55 °F (at 7:00 AM)
Average temperature yesterday: 70 °F

Past Weeks' High & Low Weather Summary

 TemperatureHumidityPressure
High84 °F (Sep 9, 4:00 PM)100% (Sep 5, 9:00 PM)30.18 "Hg (Sep 5, 9:00 PM)
Low52 °F (Sep 16, 6:00 AM)34% (Sep 17, 4:00 PM)29.77 "Hg (Sep 6, 6:00 AM)
Average68 °F75%29.95 "Hg
* Reported Sep 5 3:00 PM — Sep 20 3:00 PM, Mostar, Weather by CustomWeather, © 2014

Note: Actual official high and low records may vary slightly from our data, if they occured in-between our weather recording intervals... More about our weather records

Advertising

Mostar weather history for previous 24 hours

 ConditionsComfort  
Time TempWeatherWind HumidityBarometerVisibility
3:00 PM
Sep 20
64 °FMore clouds than sun.3 mph94%30.07 "HgN/A
2:00 PM63 °FThundershowers. Mostly cloudy.8 mph94%30.09 "Hg4 mi
1:00 PM63 °FHeavy rain. Mostly cloudy.33 mph94%30.12 "Hg1 mi
12:00 PM64 °FThundershowers. Mostly cloudy.6 mph94%30.09 "Hg4 mi
11:00 AM66 °FThundershowers. More clouds than sun.2 mph88%30.12 "HgN/A
10:00 AM66 °FLight rain. More clouds than sun.2 mph83%30.12 "HgN/A
9:30 AM68 °FLight rain. More clouds than sun.2 mph78%30.12 "HgN/A
9:00 AM68 °FBroken clouds.2 mph73%30.09 "HgN/A
8:30 AM66 °FBroken clouds.2 mph83%30.09 "HgN/A
8:00 AM66 °FBroken clouds.1 mph83%30.09 "HgN/A
7:30 AM66 °FPartly cloudy.1 mph83%30.12 "HgN/A
7:00 AM66 °FPartly cloudy.3 mph83%30.12 "HgN/A
6:30 AM66 °FPartly cloudy.2 mph88%30.12 "HgN/A
6:00 AM66 °FPassing clouds.2 mph83%30.12 "HgN/A
5:00 AM66 °FPassing clouds.1 mph83%30.15 "HgN/A
4:00 AM66 °FPassing clouds.3 mph88%30.15 "HgN/A
3:00 AM66 °FPassing clouds.2 mph83%30.15 "HgN/A
2:00 AM64 °FPassing clouds.1 mph88%30.15 "HgN/A
1:00 AM64 °FPassing clouds.1 mph88%30.15 "HgN/A
12:00 AM64 °FClear.2 mph88%30.15 "Hg10 mi
11:00 PM
Sep 19
64 °FClear.1 mph83%30.15 "Hg10 mi
10:00 PM66 °FClear.1 mph83%30.15 "Hg10 mi
9:00 PM70 °FClear.2 mph73%30.12 "Hg10 mi
8:30 PM72 °FPassing clouds.3 mph69%30.12 "HgN/A
8:00 PM72 °FPassing clouds.3 mph69%30.12 "HgN/A
Weather by CustomWeather, © 2014

See weather overviewHow to use our weather pages